Grand Island, NE

5:16 PM CDT on March 24, 2017 (GMT -0500)
Central Nebraska Regional

Weather History for KGRI - January, 2012

Change the Weather History Date:

Thursday, January 26, 2012

  Actual Average Record
Temperature  
Mean Temperature 37 °F 25 °F  
Max Temperature 50 °F 36 °F 72 °F (2002)
Min Temperature 24 °F 15 °F -26 °F (1950)
Degree Days  
Heating Degree Days 28 40  
Month to date heating degree days 884 1040  
Since 1 July heating degree days 3216 3559  
Cooling Degree Days 0 0  
Month to date cooling degree days 0 0  
Year to date cooling degree days 0 0  
Moisture  
Dew Point 22 °F    
Average Humidity 56    
Maximum Humidity 85    
Minimum Humidity 27    
Precipitation  
Precipitation 0.01 in 0.02 in 0.80 in (1932)
Month to date precipitation 0.16 0.43  
Year to date precipitation 0.16 0.43  
Snow  
Snow 0.00 in 0.20 in 8.00 in (1932)
Month to date snowfall 1.6 5.3  
Since 1 July snowfall 9.9 14.6  
Snow Depth 0.00 in    
Sea Level Pressure  
Sea Level Pressure 29.97 in    
Wind  
Wind Speed 12 mph (NW)    
Max Wind Speed 28 mph    
Max Gust Speed 35 mph    
Visibility 10 miles    
Events      
T = Trace of Precipitation, MM = Missing Value Source: NWS Daily Summary

Daily Weather History Graph

Daily Weather History Graph

Search for Another Location

Airport or City:

Trip Planner

Search our weather history database for the weather conditions in past years. The results will help you decide how hot, cold, wet, or windy it might be!

Date:

Astronomy

Jan. 26, 2012 Rise Set
Actual Time 7:49 AM CST 5:42 PM CST
Civil Twilight 7:19 AM CST 6:11 PM CST
Nautical Twilight 6:46 AM CST 6:45 PM CST
Astronomical Twilight 6:14 AM CST 7:17 PM CST
Moon 9:15 AM CST (1/26) 9:38 PM CST (1/26)
Length of Visible Light 10h 51m
Length of Day
9h 52m
Waxing Crescent, 12% of the Moon is Illuminated
Jan 26
Waxing Crescent
Jan 30
First Quarter
Feb 7
Full
Feb 14
Last Quarter
Feb 21
New

Hourly Weather History & Observations

Time (CST) Temp. Windchill Dew Point Humidity Pressure Visibility Wind Dir Wind Speed Gust Speed Precip Events Conditions
12:53 AM 27.0 °F 19.5 °F 19.0 °F 72% 29.92 in 10.0 mi WSW 6.9 mph - N/A   Clear
1:53 AM 27.0 °F 18.7 °F 19.0 °F 72% 29.95 in 10.0 mi WNW 8.1 mph - N/A   Clear
2:53 AM 32.0 °F 23.6 °F 23.0 °F 69% 29.98 in 10.0 mi NW 10.4 mph - N/A   Clear
3:53 AM 39.9 °F 30.5 °F 28.9 °F 65% 29.98 in 10.0 mi NW 19.6 mph - N/A   Scattered Clouds
4:53 AM 41.0 °F 33.1 °F 30.9 °F 67% 29.99 in 10.0 mi NNW 15.0 mph - N/A   Mostly Cloudy
5:53 AM 37.0 °F 29.8 °F 33.1 °F 86% 30.01 in 10.0 mi NW 10.4 mph - 0.01 in   Clear
6:53 AM 37.9 °F 30.0 °F 28.9 °F 70% 30.04 in 10.0 mi WNW 12.7 mph - N/A   Clear
7:53 AM 35.1 °F 26.9 °F 25.0 °F 67% 30.04 in 10.0 mi WNW 11.5 mph - N/A   Clear
8:53 AM 37.0 °F 28.9 °F 26.1 °F 65% 30.04 in 10.0 mi WNW 12.7 mph - N/A   Clear
9:53 AM 43.0 °F 34.2 °F 25.0 °F 49% 30.02 in 10.0 mi WNW 20.7 mph 29.9 mph N/A   Clear
10:53 AM 45.0 °F 36.2 °F 24.1 °F 44% 30.04 in 10.0 mi NW 24.2 mph 28.8 mph N/A   Clear
11:53 AM 46.9 °F - 21.0 °F 36% 30.02 in 10.0 mi NNW 24.2 mph 34.5 mph N/A   Clear
12:53 PM 48.9 °F - 19.0 °F 31% 29.99 in 10.0 mi NNW 21.9 mph 31.1 mph N/A   Clear
1:53 PM 50.0 °F - 18.0 °F 28% 29.96 in 10.0 mi NNW 19.6 mph 31.1 mph N/A   Clear
2:53 PM 50.0 °F - 17.1 °F 27% 29.95 in 10.0 mi NNW 16.1 mph - N/A   Clear
3:53 PM 48.9 °F - 17.1 °F 28% 29.94 in 10.0 mi North 17.3 mph - N/A   Clear
4:53 PM 46.0 °F 40.2 °F 17.1 °F 31% 29.96 in 10.0 mi NNW 12.7 mph - N/A   Clear
5:53 PM 37.0 °F 33.3 °F 16.0 °F 42% 29.98 in 10.0 mi NNW 4.6 mph - N/A   Clear
6:53 PM 35.1 °F 32.2 °F 17.1 °F 48% 29.97 in 10.0 mi Variable 3.5 mph - N/A   Clear
7:53 PM 30.0 °F 26.5 °F 17.1 °F 59% 29.95 in 10.0 mi Variable 3.5 mph - N/A   Clear
8:53 PM 27.0 °F 23.0 °F 17.1 °F 66% 29.95 in 10.0 mi South 3.5 mph - N/A   Clear
9:53 PM 28.4 °F 20.4 °F 17.6 °F 64% 29.87 in 10.0 mi ESE 8.1 mph - N/A   Clear
10:53 PM 28.0 °F 24.2 °F 19.0 °F 69% 29.91 in 10.0 mi South 3.5 mph - N/A   Clear
11:53 PM 30.9 °F 24.3 °F 19.9 °F 64% 29.91 in 10.0 mi South 6.9 mph - N/A   Clear